• MPC Preparation (Info)

  • MPEC 2014-W28 : 2014 WR6

    The following Minor Planet Electronic Circular may be linked-to from your own Web pages, but must not otherwise be redistributed electronically.

    A form allowing access to any MPEC is at the bottom of this page.


    Read MPEC 2014-W27 Read MPEC 2014-W29


    M.P.E.C. 2014-W28                                Issued 2014 Nov. 20, 00:45 UT
    
         The Minor Planet Electronic Circulars contain information on unusual
             minor planets and routine data on comets.  They are published
       on behalf of Commission 20 of the International Astronomical Union by the
              Minor Planet Center, Smithsonian Astrophysical Observatory,
                              Cambridge, MA 02138, U.S.A.
    
                 Prepared using the Tamkin Foundation Computer Network
    
                                  MPC@CFA.HARVARD.EDU
                URL https://www.minorplanetcenter.net/    ISSN 1523-6714
    
                                       2014 WR6
    
    Observations:
         K14W06R* C2014 11 18.26899 02 22 21.19 +06 52 29.4          19.5 VqEW028G96
         K14W06R  C2014 11 18.27607 02 22 20.58 +06 53 42.2          20.1 VqEW028G96
         K14W06R  C2014 11 18.28316 02 22 19.98 +06 54 54.9          19.5 VqEW028G96
         K14W06R  C2014 11 18.29027 02 22 19.39 +06 56 08.1          20.0 VqEW028G96
         K14W06R KC2014 11 18.34365 02 22 15.06 +07 05 19.5                oEW028291
         K14W06R KC2014 11 18.34428 02 22 15.02 +07 05 26.0          19.9 RoEW028291
         K14W06R KC2014 11 18.34490 02 22 14.99 +07 05 32.7          19.5 RoEW028291
         K14W06R  C2014 11 18.34654 02 22 14.81 +07 05 48.7          21.1 VqEW028G96
         K14W06R  C2014 11 18.35419 02 22 14.21 +07 07 06.6          19.5 VqEW028G96
         K14W06R  C2014 11 18.36181 02 22 13.64 +07 08 25.8          20.2 VqEW028G96
         K14W06R  C2014 11 18.36946 02 22 13.08 +07 09 44.1          19.7 VqEW028G96
         K14W06R KC2014 11 18.94725 02 21 57.45 +08 52 13.0          19.5 RqEW028203
         K14W06R KC2014 11 18.97417 02 21 55.37 +08 57 07.4                qEW028203
         K14W06R KC2014 11 18.99703 02 21 53.73 +09 01 17.4          20.0 RtEW028204
         K14W06R KC2014 11 19.00104 02 21 53.47 +09 02 00.9                tEW028204
         K14W06R KC2014 11 19.00733 02 21 53.00 +09 03 10.2                tEW028204
         K14W06R  C2014 11 19.08779602 22 00.98 +09 18 23.1          20.1 RtEW028H01
         K14W06R KC2014 11 19.09222 02 22 01.23 +09 19 16.5          20.3 RoEW028291
         K14W06R  C2014 11 19.09249702 22 00.67 +09 19 15.8          19.6 RtEW028H01
         K14W06R KC2014 11 19.09280 02 22 01.19 +09 19 23.2          19.7 RoEW028291
         K14W06R KC2014 11 19.09340 02 22 01.15 +09 19 29.3          20.1 RoEW028291
         K14W06R  C2014 11 19.10256902 22 00.00 +09 21 08.4          20.2 RtEW028H01
         K14W06R  C2014 11 19.11057002 21 59.41 +09 22 38.6          19.6 RtEW028H01
         K14W06R KC2014 11 20.00005 02 21 19.40 +12 14 34.4          20.6 VqEW028958
         K14W06R KC2014 11 20.00454 02 21 19.05 +12 15 27.9          20.0 VqEW028958
         K14W06R KC2014 11 20.01355 02 21 18.35 +12 17 16.0          20.7 VqEW028958
    
    Observer details:
    203 GiaGa Observatory.  Observers S. Foglia, G. Galli.  Measurer G. Galli.
        0.28-m f/6.8 Schmidt-Cassegrain + CCD.
    204 Schiaparelli Observatory.  Observer L. Buzzi.  0.60-m f/4.64 reflector
        + CCD.
    291 LPL/Spacewatch II.  Observer T. H. Bressi.  1.8-m f/2.7 reflector + CCD.
    958 Observatoire de Dax.  Observers P. Dupouy, J. B. de Vanssay.  Measurer
        P. Dupouy.  0.43-m f/2.7 reflector + CCD.
    G96 Mt. Lemmon Survey.  Observer A. D. Grauer.  Measurers E. J. Christensen,
        A. R. Gibbs, A. D. Grauer, R. E. Hill, J. A. Johnson, R. A. Kowalski,
        S. M. Larson, F. C. Shelly.  1.5-m reflector + CCD.
    H01 Magdalena Ridge Observatory, Socorro.  Observer W. H. Ryan.  2.4-m f/8.9
        reflector + CCD.
    
    Orbital elements:
    2014 WR6                                                 Earth MOID = 0.0438 AU
    Epoch 2014 Dec. 9.0 TT = JDT 2457000.5                  MPC
    M 356.82811              (2000.0)            P               Q
    n   0.50460460     Peri.   27.48272     +0.10403218     -0.98487986
    a   1.5625547      Node    56.85255     +0.87944015     +0.02604377
    e   0.3544348      Incl.    9.52328     +0.46450223     +0.17126993
    P   1.95           H   25.2           G   0.15           U   7
    Residuals in seconds of arc
    141118 G96  0.2+  0.2-    141118 G96  0.1+  0.3+    141119 H01  0.1+  0.3-
    141118 G96  0.1+  0.2-    141118 G96  0.1+  0.4-    141119 291  0.0   0.3+
    141118 G96  0.2+  0.4-    141118 203  0.9-  1.1+    141119 291  0.1-  0.4-
    141118 G96  0.4+  0.4-    141118 203  0.8-  0.5+    141119 H01  0.4+  0.8-
    141118 291  0.3-  0.0     141118 204  0.3-  0.4+    141119 H01  0.1+  0.5-
    141118 291  0.2-  0.1+    141119 204  0.2+  0.1-    141120 958  0.0   0.5+
    141118 291  0.1+  0.4+    141119 204  0.0   0.1+    141120 958  0.1+  0.0
    141118 G96  0.4+  0.7+    141119 H01  0.0   0.2-    141120 958  0.4+  0.3-
    141118 G96  0.1+  0.3-    141119 291  0.0   0.1+
    
    Ephemeris:
    2014 WR6                 a,e,i = 1.56, 0.35, 10                  q = 1.0087
    Date    TT    R. A. (2000) Decl.     Delta      r     Elong.  Phase     V
    2014 10 21    02 31 45.2 -19 47 26   0.1744  1.1462   147.3    28.0    22.9
    ...
    2014 11 05    02 28 38.8 -14 11 59   0.1075  1.0862   150.2    27.0    21.8
    ...
    2014 11 13    02 25 10.9 -04 51 22   0.07700 1.0598   154.6    23.6    20.9
    ...
    2014 11 19    02 21 57.2 +09 03 13   0.05826 1.0431   159.3    19.6    20.1
    2014 11 20    02 21 22.4 +12 15 47   0.05570 1.0406   159.7    19.3    20.0
    2014 11 21    02 20 47.0 +15 46 23   0.05337 1.0382   159.7    19.3    19.9
    ...
    2014 11 27    02 17 09.7 +42 37 22   0.04541 1.0257   148.0    30.6    19.9
    ...
    2014 12 05    02 12 52.8 +78 43 41   0.05359 1.0142   121.0    56.4    20.9
    ...
    2014 12 20    14 03 33.4 +72 01 16   0.09679 1.0099   102.9    71.8    22.7
    
    A. U. Tomatic                (C) Copyright 2014 MPC           M.P.E.C. 2014-W28
    

    Read MPEC 2014-W27 Read MPEC 2014-W29


    MPEC number:

    Enter an MPEC number in one of the following forms:

    • 1997-B01 (the full form)
    • J97B01 (the packed version of the full form)
    • B01 (the abbreviated form)